This is the latest recevied weather packets stored in our database for station/object DK0KTL-4. If no packets are shown the sender has not sent any weather packets the latest 10 day(s).
| Time | Temp. | Humidity | Pressure | Rain* | Wind** | Luminosity | Snow |
|---|---|---|---|---|---|---|---|
| 1787926258 | 20° C | 88% | 1008.6 hPa | 0 mm | - | - | - |
| 1787925958 | 20° C | 88% | 1008.8 hPa | 0 mm | - | - | - |
| 1787925657 | 20° C | 89% | 1008.9 hPa | 0 mm | - | - | - |
| 1787925391 | 20° C | 89% | 1008.8 hPa | 0 mm | - | - | - |
| 1787925357 | 20° C | 89% | 1008.8 hPa | 0 mm | - | - | - |
| 1787925056 | 19.44° C | 91% | 1008.8 hPa | 0 mm | - | - | - |
| 1787924756 | 19.44° C | 90% | 1008.4 hPa | 0 mm | - | - | - |
| 1787924456 | 19.44° C | 90% | 1008.7 hPa | 0 mm | - | - | - |
| 1787924156 | 19.44° C | 90% | 1009.1 hPa | 0 mm | - | - | - |
| 1787923855 | 19.44° C | 90% | 1008.9 hPa | 0.25 mm | - | - | - |
| 1787923555 | 19.44° C | 90% | 1008.9 hPa | 0.25 mm | - | - | - |
| 1787923255 | 19.44° C | 91% | 1009.5 hPa | 0.25 mm | - | - | - |
| 1787922654 | 19.44° C | 91% | 1009.7 hPa | 0.51 mm | - | - | - |
| 1787922354 | 19.44° C | 90% | 1008.5 hPa | 0.76 mm | - | - | - |
| 1787922054 | 19.44° C | 90% | 1009.5 hPa | 0.76 mm | - | - | - |
| 1787921753 | 19.44° C | 90% | 1009.8 hPa | 1.27 mm | - | - | - |
| 1787921453 | 19.44° C | 90% | 1010 hPa | 1.52 mm | - | - | - |
| 1787920852 | 19.44° C | 90% | 1010.1 hPa | 2.54 mm | - | - | - |
| 1787920552 | 19.44° C | 90% | 1011 hPa | 2.79 mm | - | - | - |
| 1787920252 | 19.44° C | 90% | 1011.3 hPa | 2.54 mm | - | - | - |
| 1787919951 | 19.44° C | 90% | 1011.7 hPa | 2.54 mm | - | - | - |
| 1787919651 | 19.44° C | 89% | 1011.8 hPa | 2.54 mm | - | - | - |
| 1787919351 | 19.44° C | 89% | 1011.7 hPa | 2.29 mm | - | - | - |
| 1787919051 | 19.44° C | 88% | 1011.8 hPa | 2.29 mm | - | - | - |
| 1787918750 | 19.44° C | 87% | 1012 hPa | 2.03 mm | - | - | - |
* Rain latest hour (hover to see other rain measurements)
** Current wind speed in m/s (hover to see current wind gust speed)